This is the latest recevied weather packets stored in our database for station/object M0PPR-2. If no packets are shown the sender has not sent any weather packets the latest 10 day(s).
| Time | Temp. | Humidity | Pressure | Rain* | Wind** | Luminosity | Snow |
|---|---|---|---|---|---|---|---|
| 1777800933 | 28.89° C | 39% | 1005.2 hPa | - | - | - | - |
| 1777800033 | 28.89° C | 41% | 1005.1 hPa | - | - | - | - |
| 1777799132 | 28.89° C | 41% | 1005.1 hPa | - | - | - | - |
| 1777798232 | 28.89° C | 38% | 1005.2 hPa | - | - | - | - |
| 1777797332 | 28.89° C | 42% | 1005.1 hPa | - | - | - | - |
| 1777796432 | 28.89° C | 42% | 1005.2 hPa | - | - | - | - |
| 1777795532 | 29.44° C | 42% | 1005.1 hPa | - | - | - | - |
| 1777794632 | 28.89° C | 42% | 1005.1 hPa | - | - | - | - |
| 1777793732 | 29.44° C | 43% | 1005.2 hPa | - | - | - | - |
| 1777792832 | 29.44° C | 42% | 1005.2 hPa | - | - | - | - |
| 1777791931 | 28.89° C | 42% | 1005.1 hPa | - | - | - | - |
| 1777791031 | 29.44° C | 41% | 1004.9 hPa | - | - | - | - |
| 1777790131 | 28.89° C | 43% | 1005 hPa | - | - | - | - |
| 1777789231 | 28.89° C | 41% | 1004.8 hPa | - | - | - | - |
| 1777788331 | 28.89° C | 41% | 1004.8 hPa | - | - | - | - |
| 1777787431 | 28.89° C | 41% | 1004.6 hPa | - | - | - | - |
| 1777786531 | 28.89° C | 41% | 1004.5 hPa | - | - | - | - |
| 1777785630 | 29.44° C | 41% | 1004.4 hPa | - | - | - | - |
| 1777784730 | 29.44° C | 41% | 1004.4 hPa | - | - | - | - |
| 1777783830 | 29.44° C | 41% | 1004.3 hPa | - | - | - | - |
| 1777782930 | 29.44° C | 41% | 1004.5 hPa | - | - | - | - |
| 1777782030 | 29.44° C | 41% | 1004.5 hPa | - | - | - | - |
| 1777781130 | 29.44° C | 41% | 1004.4 hPa | - | - | - | - |
| 1777780230 | 29.44° C | 41% | 1004.4 hPa | - | - | - | - |
| 1777779329 | 29.44° C | 41% | 1004.4 hPa | - | - | - | - |
* Rain since midnight (hover to see other rain measurements)
** Current wind speed in m/s (hover to see current wind gust speed)